TIANHUI 2-02B (49072 NORAD) Tracking and Keplerian Element Data

This shows tracking and keplerian element data for the satellite.

Feedback or suggestion? Click here.




ElementValue
Catalog49072
NameTIANHUI 2-02B
Epoch Orbit1063
Epoch Day301.10284788
Epoch Year2021
RAAN303.9651
Inclination97.4533
Eccentricity0.0001711
Argument of Perigee91.9434
Mean Anonmoly346.8339
Mean Motion15.16764536
Decay Rate3.71E-06
L11 49072U 21074B 21301.10284788 .00000371 00000-0 22256-4 0 9993
L22 49072 97.4533 303.9651 0001711 91.9434 346.8339 15.16764536 10632

Live tracking and technical data element details for TIANHUI 2-02B (NORAD 49072). TIANHUI 2-02B can be tracked NOW for your location showing map with azimuth and elevation plus other details from your city location.

Track the satellite on the map from your city or location and see movement details for azimuth, elevation, latitude, longitude, range, height, and movement on the map or in text.







IsCatalogInMostPopularTable: catalog: 49072, numindb: 9
Update: records affected: 1



GetName: 49072 TIANHUI 2-02B

Hit Count: updated at: Thu, 28 Oct 2021 12:15:19 GMT